Dati Storici

Data ora Umidita' aria (%) Temperatura aria (°C) Rad globale (W/m²) Gonioanemometro (°) Tacoanemometro (m/s) Pioggia (mm)
02-11-2012 11:30 77.3 % 14.401 260.206 312.651 0.907 0
02-11-2012 11:20 81 % 12.765 259.136 320.092 0.723 0
02-11-2012 11:10 80.7 % 12.396 127.117 322.084 1.366 0
02-11-2012 11:00 79.5 % 12.774 187.46 298.277 1.014 0
02-11-2012 10:50 81.9 % 12.645 411.712 342.236 1.635 0
02-11-2012 10:40 83.5 % 12.021 378.174 345.388 0.981 0
02-11-2012 10:30 83.6 % 11.953 353.499 321.45 1.778 0
02-11-2012 10:20 86.4 % 11.563 238.507 345.284 1.098 0
02-11-2012 10:10 87 % 10.56 302.351 333.413 2.4 0
02-11-2012 10:00 90.1 % 10.524 276.214 27.824 1.442 0
02-11-2012 09:50 92.8 % 10.5 248.115 347.197 1.616 0
02-11-2012 09:40 93.7 % 10.208 226.243 342.634 1.16 0
02-11-2012 09:30 94 % 9.661 203.378 17.621 1.2 0
02-11-2012 09:20 94.2 % 9.093 187.635 16.041 1.391 0
02-11-2012 09:10 94.4 % 8.74 177.475 5.525 1.63 0
02-11-2012 09:00 94.9 % 8.658 166.123 34.302 1.123 0
02-11-2012 08:50 95.4 % 8.345 142.388 345.409 0.666 0
02-11-2012 08:40 96 % 8.115 115.467 333.546 0.426 0
02-11-2012 08:30 96.3 % 7.726 62.007 30.243 1.002 0
02-11-2012 08:20 96.8 % 7.527 48.248 8.373 1.1 0

I dati sono presentati in modo automatico a scopo informativo. In seguito a verifica i dati possono subire modifiche o essere invalidati e non riportati negli archivi definitivi.